Tracking 28327 objects as of 1-Dec-2023
HD Live streaming from Space Station
objects crossing your sky now

GONETS M 17

Track GONETS M 17 now!
10-day predictions


NORAD ID: 46486
Int'l Code: 2020-068A
Perigee: 1,483.7 km
Apogee: 1,519.3 km
Inclination: 82.5 °
Period: 115.9 minutes
Semi major axis: 7872 km
RCS: Unknown
Launch date: September 28, 2020
Source: Commonwealth of Independent States (former USSR) (CIS)
Launch site: PLESETSK MISSILE AND SPACE COMPLEX (PKMTR)
Your satellite tracking list
Your tracking list is empty




NASA's NSSDC Master Catalog

Two Line Element Set (TLE):
1 46486U 20068A   23335.10682481  .00000046  00000-0  25865-3 0  9999
2 46486  82.4990 205.4460 0022609 262.4793  97.3718 12.42899982143923
Source of the keplerian elements: AFSPC